| time (UTC) | temp F | wind direction | speed MPH | gust MPH | rain 1hr in | rain 24hr in | rain mn in | humidity % | barometer mb |
| 20260502164244 | 55 | 257 | 3.0 | 3.0 | 0.00 | 0.00 | 0.00 | 51 | 998.3 |
| 20260502163631 | 53 | 215 | 2.0 | 2.0 | 0.00 | 0.00 | 0.00 | 48 | 998.6 |
| 20260502163053 | 53 | 274 | 3.0 | 3.0 | 0.00 | 0.00 | 0.00 | 52 | 998.6 |
| 20260502162442 | 54 | 261 | 4.0 | 7.0 | 0.00 | 0.00 | 0.00 | 53 | 998.6 |
| 20260502161816 | 54 | 245 | 1.0 | 3.0 | 0.00 | 0.00 | 0.00 | 49 | 998.6 |
| 20260502161221 | 53 | 214 | 2.0 | 4.0 | 0.00 | 0.00 | 0.00 | 55 | 998.9 |
| 20260502160623 | 53 | 257 | 2.0 | 7.0 | 0.00 | 0.00 | 0.00 | 52 | 998.6 |
| 20260502151833 | 52 | 229 | 4.0 | 6.0 | 0.00 | 0.00 | 0.00 | 55 | 998.9 |
| 20260502151241 | 52 | 221 | 1.0 | 7.0 | 0.00 | 0.00 | 0.00 | 60 | 998.9 |
| 20260502150650 | 52 | 220 | 2.0 | 4.0 | 0.00 | 0.00 | 0.00 | 56 | 998.9 |
| 20260502130631 | 42 | 259 | 1.0 | 1.0 | 0.00 | 0.00 | 0.00 | 99 | 998.9 |
| 20260502123635 | 40 | 273 | 0.0 | 0.0 | 0.00 | 0.00 | 0.00 | 99 | 998.9 |
| 20260502122440 | 39 | 256 | 0.0 | 0.0 | 0.00 | 0.00 | 0.00 | 99 | 998.9 |
| 20260502121222 | 39 | 250 | 0.0 | 1.0 | 0.00 | 0.00 | 0.00 | 99 | 998.9 |
| 20260502120644 | 39 | 249 | 0.0 | 0.0 | 0.00 | 0.00 | 0.00 | 99 | 998.9 |
| 20260502115451 | 40 | 253 | 0.0 | 1.0 | 0.00 | 0.00 | 0.00 | 99 | 999.3 |
| 20260502114813 | 39 | 244 | 0.0 | 1.0 | 0.00 | 0.00 | 0.00 | 99 | 998.9 |
| 20260502114232 | 39 | 225 | 0.0 | 0.0 | 0.00 | 0.00 | 0.00 | 99 | 998.9 |
| 20260502113611 | 39 | 252 | 0.0 | 0.0 | 0.00 | 0.00 | 0.00 | 99 | 998.9 |
| 20260502113039 | 39 | 247 | 0.0 | 1.0 | 0.00 | 0.00 | 0.00 | 99 | 998.9 |
| 20260502112437 | 39 | 238 | 0.0 | 0.0 | 0.00 | 0.00 | 0.00 | 99 | 998.9 |
| 20260502111828 | 39 | 237 | 0.0 | 0.0 | 0.00 | 0.00 | 0.00 | 99 | 998.6 |
| 20260502111226 | 39 | 218 | 0.0 | 1.0 | 0.00 | 0.00 | 0.00 | 99 | 998.6 |
| 20260502110017 | 38 | 236 | 0.0 | 0.0 | 0.00 | 0.00 | 0.00 | 99 | 998.6 |
| 20260502105418 | 38 | 226 | 0.0 | 1.0 | 0.00 | 0.00 | 0.00 | 99 | 998.6 |
| 20260502104829 | 38 | 237 | 0.0 | 0.0 | 0.00 | 0.00 | 0.00 | 99 | 998.6 |
| 20260502104217 | 38 | 238 | 0.0 | 0.0 | 0.00 | 0.00 | 0.00 | 99 | 998.6 |
| 20260502103635 | 38 | 242 | 0.0 | 0.0 | 0.00 | 0.00 | 0.00 | 99 | 998.6 |
| 20260502103043 | 38 | 240 | 0.0 | 0.0 | 0.00 | 0.00 | 0.00 | 99 | 998.6 |
| 20260502102419 | 38 | 233 | 0.0 | 1.0 | 0.00 | 0.00 | 0.00 | 99 | 998.6 |
| 20260502101846 | 38 | 226 | 1.0 | 1.0 | 0.00 | 0.00 | 0.00 | 99 | 998.9 |
| 20260502100630 | 38 | 231 | 0.0 | 0.0 | 0.00 | 0.00 | 0.00 | 99 | 998.9 |
| 20260502091252 | 38 | 236 | 0.0 | 1.0 | 0.00 | 0.00 | 0.00 | 99 | 998.9 |
| 20260502090624 | 38 | 223 | 0.0 | 2.0 | 0.00 | 0.00 | 0.00 | 99 | 998.9 |
| 20260502071224 | 39 | 211 | 0.0 | 1.0 | 0.00 | 0.00 | 0.00 | 99 | 998.3 |
| 20260502070652 | 39 | 229 | 0.0 | 1.0 | 0.00 | 0.00 | 0.00 | 99 | 998.6 |
| 20260502070035 | 39 | 201 | 0.0 | 1.0 | 0.00 | 0.00 | 0.00 | 99 | 998.6 |
| 20260502063651 | 38 | 220 | 1.0 | 1.0 | 0.00 | 0.00 | 0.00 | 99 | 998.6 |
| 20260502063042 | 38 | 234 | 0.0 | 1.0 | 0.00 | 0.00 | 0.00 | 99 | 998.9 |
| 20260502061814 | 38 | 225 | 1.0 | 1.0 | 0.00 | 0.00 | 0.00 | 99 | 998.9 |
| 20260502061249 | 38 | 227 | 0.0 | 1.0 | 0.00 | 0.00 | 0.00 | 99 | 998.9 |
| 20260502060622 | 38 | 225 | 0.0 | 0.0 | 0.00 | 0.00 | 0.00 | 99 | 998.9 |
| 20260502060047 | 38 | 228 | 0.0 | 1.0 | 0.00 | 0.00 | 0.00 | 99 | 998.9 |
| 20260502055448 | 38 | 230 | 0.0 | 0.0 | 0.00 | 0.00 | 0.00 | 99 | 998.9 |
| 20260502054820 | 38 | 222 | 0.0 | 1.0 | 0.00 | 0.00 | 0.00 | 99 | 999.3 |
| 20260502054250 | 38 | 232 | 0.0 | 0.0 | 0.00 | 0.00 | 0.00 | 99 | 998.9 |
| 20260502053021 | 38 | 226 | 0.0 | 1.0 | 0.00 | 0.00 | 0.00 | 99 | 999.3 |
| 20260502052415 | 38 | 228 | 0.0 | 0.0 | 0.00 | 0.00 | 0.00 | 99 | 999.3 |
| 20260502051826 | 38 | 228 | 0.0 | 0.0 | 0.00 | 0.00 | 0.00 | 99 | 998.9 |
| 20260502051220 | 38 | 232 | 0.0 | 0.0 | 0.00 | 0.00 | 0.00 | 99 | 999.3 |
| 20260502050628 | 38 | 226 | 1.0 | 1.0 | 0.00 | 0.00 | 0.00 | 99 | 998.9 |
| 20260502050039 | 38 | 226 | 0.0 | 1.0 | 0.00 | 0.00 | 0.00 | 99 | 999.3 |
| 20260502045433 | 39 | 226 | 0.0 | 1.0 | 0.00 | 0.00 | 0.00 | 99 | 998.9 |
| 20260502044838 | 39 | 223 | 1.0 | 1.0 | 0.00 | 0.00 | 0.00 | 99 | 999.3 |
| 20260502043629 | 39 | 233 | 0.0 | 1.0 | 0.00 | 0.00 | 0.00 | 98 | 998.9 |
| 20260502043043 | 40 | 232 | 1.0 | 1.0 | 0.00 | 0.00 | 0.00 | 98 | 999.3 |
| 20260502042435 | 40 | 240 | 0.0 | 1.0 | 0.00 | 0.00 | 0.00 | 98 | 999.3 |
| 20260502041810 | 40 | 233 | 0.0 | 1.0 | 0.00 | 0.00 | 0.00 | 98 | 999.3 |
| 20260502041217 | 40 | 227 | 1.0 | 1.0 | 0.00 | 0.00 | 0.00 | 98 | 999.3 |
| 20260502040649 | 40 | 227 | 0.0 | 1.0 | 0.00 | 0.00 | 0.00 | 98 | 999.3 |
| 20260502040019 | 40 | 232 | 0.0 | 0.0 | 0.00 | 0.00 | 0.00 | 97 | 998.9 |
| 20260502035442 | 41 | 215 | 1.0 | 1.0 | 0.00 | 0.00 | 0.00 | 97 | 999.3 |
| 20260502034810 | 41 | 226 | 0.0 | 1.0 | 0.00 | 0.00 | 0.00 | 97 | 999.3 |
| 20260502034246 | 41 | 226 | 0.0 | 1.0 | 0.00 | 0.00 | 0.00 | 97 | 998.9 |
| 20260502033649 | 41 | 232 | 0.0 | 0.0 | 0.00 | 0.00 | 0.00 | 96 | 998.9 |
| 20260502033012 | 42 | 225 | 0.0 | 1.0 | 0.00 | 0.00 | 0.00 | 95 | 998.9 |
| 20260502032426 | 42 | 226 | 0.0 | 1.0 | 0.00 | 0.00 | 0.00 | 95 | 998.9 |
| 20260502031841 | 42 | 235 | 0.0 | 0.0 | 0.00 | 0.00 | 0.00 | 95 | 998.9 |
| 20260502031213 | 42 | 232 | 0.0 | 1.0 | 0.00 | 0.00 | 0.00 | 94 | 998.9 |
| 20260502030616 | 43 | 233 | 0.0 | 0.0 | 0.00 | 0.00 | 0.00 | 93 | 998.9 |
| 20260502030046 | 43 | 240 | 0.0 | 0.0 | 0.00 | 0.00 | 0.00 | 93 | 998.9 |
| 20260502025414 | 44 | 235 | 0.0 | 0.0 | 0.00 | 0.00 | 0.00 | 93 | 998.9 |
| 20260502024827 | 43 | 233 | 0.0 | 0.0 | 0.00 | 0.00 | 0.00 | 92 | 999.3 |
| 20260502024219 | 43 | 233 | 0.0 | 0.0 | 0.00 | 0.00 | 0.00 | 91 | 999.3 |
| 20260502023624 | 43 | 233 | 0.0 | 1.0 | 0.00 | 0.00 | 0.00 | 91 | 999.3 |
| 20260502023047 | 44 | 223 | 1.0 | 1.0 | 0.00 | 0.00 | 0.00 | 90 | 998.9 |
| 20260502022427 | 44 | 224 | 1.0 | 1.0 | 0.00 | 0.00 | 0.00 | 89 | 998.9 |
| 20260502021812 | 45 | 222 | 1.0 | 1.0 | 0.00 | 0.00 | 0.00 | 89 | 998.9 |
| 20260502021234 | 46 | 223 | 0.0 | 1.0 | 0.00 | 0.00 | 0.00 | 88 | 998.9 |
| 20260502020614 | 46 | 233 | 0.0 | 0.0 | 0.00 | 0.00 | 0.00 | 87 | 998.3 |
| 20260502020036 | 47 | 227 | 1.0 | 1.0 | 0.00 | 0.00 | 0.00 | 84 | 998.3 |
| 20260502015431 | 48 | 240 | 0.0 | 1.0 | 0.00 | 0.00 | 0.00 | 84 | 998.3 |
| 20260502014842 | 49 | 243 | 1.0 | 1.0 | 0.00 | 0.00 | 0.00 | 82 | 998.3 |
| 20260502014227 | 49 | 234 | 0.0 | 1.0 | 0.00 | 0.00 | 0.00 | 77 | 998.3 |
| 20260502013620 | 49 | 243 | 1.0 | 1.0 | 0.00 | 0.00 | 0.00 | 77 | 998.3 |
| 20260502013036 | 49 | 235 | 2.0 | 2.0 | 0.00 | 0.00 | 0.00 | 77 | 998.3 |
| 20260502012450 | 49 | 241 | 0.0 | 1.0 | 0.00 | 0.00 | 0.00 | 76 | 998.3 |
| 20260502011841 | 50 | 243 | 1.0 | 2.0 | 0.00 | 0.00 | 0.00 | 74 | 997.9 |
| 20260502011224 | 50 | 237 | 0.0 | 1.0 | 0.00 | 0.00 | 0.00 | 72 | 997.9 |
| 20260502010625 | 50 | 241 | 1.0 | 2.0 | 0.00 | 0.00 | 0.00 | 71 | 997.6 |
| 20260502010053 | 50 | 245 | 2.0 | 2.0 | 0.00 | 0.00 | 0.00 | 71 | 997.6 |
| 20260502005446 | 51 | 234 | 1.0 | 2.0 | 0.00 | 0.00 | 0.00 | 72 | 997.6 |
| 20260502004843 | 51 | 259 | 3.0 | 4.0 | 0.00 | 0.00 | 0.00 | 69 | 997.2 |
| 20260502004227 | 51 | 237 | 0.0 | 2.0 | 0.00 | 0.00 | 0.00 | 70 | 997.2 |
| 20260502003649 | 51 | 262 | 3.0 | 4.0 | 0.00 | 0.00 | 0.00 | 68 | 996.9 |
| 20260502002449 | 52 | 233 | 4.0 | 6.0 | 0.00 | 0.00 | 0.00 | 70 | 996.9 |
| 20260502001832 | 53 | 239 | 3.0 | 4.0 | 0.00 | 0.00 | 0.00 | 71 | 996.9 |
| 20260502001246 | 53 | 231 | 1.0 | 6.0 | 0.00 | 0.00 | 0.00 | 67 | 996.6 |
| 20260502000031 | 54 | 263 | 4.0 | 9.0 | 0.00 | 0.00 | 0.00 | 70 | 996.2 |
| 20260501235453 | 54 | 240 | 1.0 | 2.0 | 0.00 | 0.00 | 0.00 | 72 | 996.2 |
| 20260501234840 | 54 | 239 | 2.0 | 3.0 | 0.00 | 0.00 | 0.00 | 72 | 996.2 |
| 20260501234253 | 54 | 262 | 4.0 | 4.0 | 0.00 | 0.00 | 0.00 | 70 | 995.5 |
| 20260501233644 | 54 | 246 | 2.0 | 4.0 | 0.00 | 0.00 | 0.00 | 72 | 995.5 |
| 20260501233024 | 54 | 244 | 1.0 | 7.0 | 0.00 | 0.00 | 0.00 | 68 | 995.5 |
| 20260501232442 | 55 | 245 | 2.0 | 4.0 | 0.00 | 0.00 | 0.00 | 68 | 995.5 |
| 20260501231817 | 55 | 242 | 4.0 | 4.0 | 0.00 | 0.00 | 0.00 | 67 | 995.5 |
| 20260501231255 | 55 | 242 | 1.0 | 3.0 | 0.00 | 0.00 | 0.00 | 68 | 995.5 |
| 20260501230650 | 56 | 261 | 3.0 | 6.0 | 0.00 | 0.00 | 0.00 | 67 | 995.2 |
| 20260501230036 | 56 | 239 | 1.0 | 1.0 | 0.00 | 0.00 | 0.00 | 66 | 995.5 |
| 20260501225415 | 56 | 255 | 3.0 | 3.0 | 0.00 | 0.00 | 0.00 | 67 | 995.2 |
| 20260501224827 | 56 | 230 | 1.0 | 2.0 | 0.00 | 0.00 | 0.00 | 66 | 995.2 |
| 20260501224233 | 55 | 243 | 3.0 | 7.0 | 0.00 | 0.00 | 0.00 | 65 | 995.2 |
| 20260501223616 | 56 | 218 | 2.0 | 8.0 | 0.00 | 0.00 | 0.00 | 64 | 995.2 |
| 20260501223053 | 56 | 249 | 2.0 | 7.0 | 0.00 | 0.00 | 0.00 | 66 | 995.2 |
| 20260501222451 | 56 | 260 | 2.0 | 4.0 | 0.00 | 0.00 | 0.00 | 66 | 994.9 |
| 20260501221839 | 56 | 239 | 2.0 | 2.0 | 0.00 | 0.00 | 0.00 | 68 | 995.2 |
| 20260501221246 | 56 | 233 | 0.0 | 4.0 | 0.00 | 0.00 | 0.00 | 68 | 995.2 |
| 20260501220645 | 55 | 220 | 2.0 | 6.0 | 0.00 | 0.00 | 0.00 | 69 | 995.2 |
| 20260501220021 | 55 | 250 | 1.0 | 2.0 | 0.00 | 0.00 | 0.00 | 71 | 994.9 |
| 20260501215415 | 55 | 218 | 3.0 | 3.0 | 0.00 | 0.00 | 0.00 | 71 | 994.9 |
| 20260501214238 | 55 | 245 | 1.0 | 2.0 | 0.00 | 0.00 | 0.00 | 68 | 995.2 |
| 20260501213041 | 55 | 239 | 2.0 | 2.0 | 0.00 | 0.00 | 0.00 | 71 | 994.9 |
| 20260501211829 | 55 | 255 | 1.0 | 1.0 | 0.00 | 0.00 | 0.00 | 71 | 994.9 |
| 20260501211210 | 55 | 228 | 1.0 | 2.0 | 0.00 | 0.00 | 0.00 | 73 | 994.5 |
| 20260501210617 | 55 | 244 | 1.0 | 2.0 | 0.00 | 0.00 | 0.00 | 73 | 994.9 |
| 20260501210030 | 55 | 268 | 2.0 | 3.0 | 0.00 | 0.00 | 0.00 | 71 | 994.5 |
| 20260501205421 | 55 | 247 | 2.0 | 3.0 | 0.00 | 0.00 | 0.00 | 73 | 994.9 |
| 20260501204849 | 56 | 257 | 2.0 | 3.0 | 0.00 | 0.00 | 0.00 | 74 | 994.5 |
| 20260501203622 | 56 | 238 | 1.0 | 2.0 | 0.00 | 0.00 | 0.00 | 74 | 994.5 |
| 20260501202444 | 56 | 237 | 3.0 | 6.0 | 0.00 | 0.00 | 0.00 | 73 | 994.5 |
| 20260501201809 | 56 | 271 | 4.0 | 4.0 | 0.00 | 0.00 | 0.00 | 73 | 994.5 |
| 20260501201239 | 57 | 283 | 6.0 | 12.0 | 0.00 | 0.00 | 0.00 | 72 | 994.5 |
| 20260501200048 | 58 | 218 | 5.0 | 7.0 | 0.00 | 0.00 | 0.00 | 66 | 994.5 |
| 20260501194853 | 59 | 262 | 5.0 | 14.0 | 0.00 | 0.00 | 0.00 | 64 | 994.2 |
| 20260501194230 | 60 | 273 | 2.0 | 3.0 | 0.00 | 0.00 | 0.00 | 64 | 993.9 |
| 20260501193623 | 59 | 235 | 4.0 | 6.0 | 0.00 | 0.00 | 0.00 | 61 | 993.9 |
| 20260501193039 | 60 | 245 | 3.0 | 4.0 | 0.00 | 0.00 | 0.00 | 63 | 993.9 |
| 20260501192423 | 60 | 252 | 1.0 | 3.0 | 0.00 | 0.00 | 0.00 | 64 | 993.9 |
| 20260501191236 | 60 | 240 | 1.0 | 3.0 | 0.00 | 0.00 | 0.00 | 61 | 994.2 |
| 20260501190645 | 60 | 271 | 2.0 | 3.0 | 0.00 | 0.00 | 0.00 | 63 | 993.9 |
| 20260501190012 | 60 | 236 | 1.0 | 3.0 | 0.00 | 0.00 | 0.00 | 58 | 993.9 |
| 20260501185428 | 61 | 233 | 1.0 | 3.0 | 0.00 | 0.00 | 0.00 | 60 | 993.9 |
| 20260501184841 | 61 | 235 | 1.0 | 2.0 | 0.00 | 0.00 | 0.00 | 60 | 993.9 |
| 20260501184223 | 61 | 153 | 3.0 | 3.0 | 0.00 | 0.00 | 0.00 | 55 | 993.9 |
| 20260501183648 | 62 | 231 | 1.0 | 3.0 | 0.00 | 0.00 | 0.00 | 57 | 993.5 |
| 20260501182421 | 62 | 214 | 2.0 | 8.0 | 0.00 | 0.00 | 0.00 | 52 | 993.2 |
| 20260501181823 | 64 | 230 | 1.0 | 7.0 | 0.00 | 0.00 | 0.00 | 49 | 993.5 |
| 20260501181238 | 63 | 203 | 1.0 | 2.0 | 0.00 | 0.00 | 0.00 | 55 | 993.5 |
| 20260501180653 | 63 | 211 | 2.0 | 7.0 | 0.00 | 0.00 | 0.00 | 50 | 993.9 |
| 20260501180037 | 63 | 242 | 1.0 | 3.0 | 0.00 | 0.00 | 0.00 | 56 | 993.5 |
| 20260501172428 | 64 | 224 | 1.0 | 3.0 | 0.00 | 0.00 | 0.00 | 52 | 993.9 |